Location: Góry Miechowskie
(50.3599°N, 20.1803°E)
Time: 02:24:11
(UTC+00:00)

Resurs 1-4 Rocket - Pass Details

Date: 24 September 2024
Orbit: 798 x 813 km, 98.8° (Epoch: 14 October)

Event Time Altitude Azimuth Distance (km) Brightness Sun altitude
Rises 00:28:09 0° 18° (NNE) 3,318 6.2 -34.4°
Reaches altitude 10° 00:30:33 10° 23° (NNE) 2,383 5.3 -34.1°
Enters shadow 00:34:15 41° 51° (NE) 1,144 3.2 -33.8°
